Simultaneous Nadir Overpasses (SNOs) Predictions

Prediction of SNOs between GOES-17 and METOP-B Satellite Orbit:

Table of predicted SNOs for the next 14.0 days since TLE Epoch: 2/4/2023
Index Date Time (GOES-17) GOES-17 Lat,Lon METOP-B Lat,Lon Distance(km) Time Diff (sec)
1 02/04/2023 04:38:34 -0.00,-110.41 0.82,-106.86 405.37 80
2 02/05/2023 16:54:41 0.00,-108.66 0.58,-111.34 304.70 80
3 02/06/2023 16:36:37 0.01,-107.50 -0.24,-106.28 138.70 80
4 02/09/2023 04:32:10 -0.01,-104.56 -0.27,-105.76 136.18 80
5 02/10/2023 04:14:06 -0.02,-103.40 0.56,-100.70 307.27 80
6 02/11/2023 16:30:14 0.02,-101.66 0.78,-105.20 402.78 80
7 02/12/2023 16:12:10 0.02,-100.50 -0.05,-100.14 40.54 80
8 02/13/2023 15:51:28 0.02, -99.34 -0.95, -95.10 483.96 80
9 02/15/2023 04:07:42 -0.01, -97.55 -0.50, -99.61 235.04 80
10 02/16/2023 03:49:40 -0.02, -96.39 0.40, -94.57 207.95 80
